Weather History for Whiting Fld NAS, FL

Change the Weather History Date:

Wednesday, March 26, 2014

  Actual Average Record
Temperature  
Mean Temperature 44 °F -  
Max Temperature 57 °F 71 °F 84 °F (2011)
Min Temperature 32 °F 50 °F 32 °F (2013)
Degree Days  
Heating Degree Days 20    
Moisture  
Dew Point 24 °F    
Average Humidity 46    
Maximum Humidity 85    
Minimum Humidity 21    
Precipitation  
Precipitation 0.00 in - - ()
Sea Level Pressure  
Sea Level Pressure 30.26 in    
Wind  
Wind Speed 4 mph (NE)    
Max Wind Speed 10 mph    
Max Gust Speed 17 mph    
Visibility 9 miles    
Events      
Averages and records for this station are not official NWS values.
T = Trace of Precipitation, MM = Missing Value Source: NWS Daily Summary

Daily Weather History Graph

Daily Weather History Graph

Search for Another Location

Airport:

Trip Planner

Search our weather history database for the weather conditions in past years. The results will help you decide how hot, cold, wet, or windy it might be!

Date:

Astronomy

Mar. 26, 2014 Rise Set
Actual Time 6:44 AM CDT 7:03 PM CDT
Civil Twilight 6:20 AM CDT 7:27 PM CDT
Nautical Twilight 5:52 AM CDT 7:55 PM CDT
Astronomical Twilight 5:23 AM CDT 8:24 PM CDT
Moon 3:35 AM CDT 2:57 PM CDT
Length of Visible Light 13h 07m
Length of Day
12h 18m
Waning Crescent, 21% of the Moon is Illuminated
Mar 26
Waning Crescent
Mar 30
New
Apr 7
First Quarter
Apr 15
Full
Apr 22
Last Quarter

Hourly Weather History & Observations

Time (CDT) Temp. Windchill Dew Point Humidity Pressure Visibility Wind Dir Wind Speed Gust Speed Precip Events Conditions
12:56 AM 39.9 °F 37.8 °F 26.1 °F 58% 30.24 in 10.0 mi NNW 3.5 mph - N/A   Clear
1:56 AM 39.9 °F 35.8 °F 23.0 °F 51% 30.24 in 10.0 mi North 5.8 mph - N/A   Clear
2:56 AM 39.0 °F 35.7 °F 21.9 °F 50% 30.24 in 10.0 mi North 4.6 mph - N/A   Clear
3:56 AM 36.0 °F 33.3 °F 23.0 °F 59% 30.23 in 10.0 mi North 3.5 mph - N/A   Clear
4:56 AM 35.1 °F - 21.9 °F 59% 30.25 in 10.0 mi Calm Calm - N/A   Clear
5:56 AM 32.0 °F - 24.1 °F 73% 30.28 in 10.0 mi Calm Calm - N/A   Clear
6:56 AM 32.0 °F 28.7 °F 28.0 °F 85% 30.30 in 10.0 mi North 3.5 mph - N/A   Partly Cloudy
7:56 AM 39.0 °F 36.8 °F 21.9 °F 50% 30.32 in 10.0 mi Variable 3.5 mph - N/A   Clear
8:56 AM 44.1 °F 39.0 °F 21.9 °F 42% 30.34 in 10.0 mi ENE 9.2 mph - N/A   Partly Cloudy
9:56 AM 48.0 °F - 18.0 °F 30% 30.37 in 10.0 mi East 8.1 mph - N/A   Mostly Cloudy
10:56 AM 51.8 °F - 17.6 °F 26% 30.36 in 10.0 mi NNE 6.9 mph - N/A   Mostly Cloudy
11:56 AM 53.6 °F - 17.6 °F 24% 30.33 in 8.0 mi NE 10.4 mph 17.3 mph N/A   Mostly Cloudy
12:56 PM 53.6 °F - 15.8 °F 22% 30.31 in 9.0 mi ENE 5.8 mph - N/A   Mostly Cloudy
1:56 PM 55.4 °F - 17.6 °F 23% 30.28 in 4.0 mi Variable 3.5 mph - N/A   Smoke
2:56 PM 57.2 °F - 17.6 °F 21% 30.25 in 5.0 mi Variable 4.6 mph - N/A   Smoke
3:56 PM 57.2 °F - 19.4 °F 23% 30.24 in 5.0 mi Calm Calm - N/A   Smoke
4:56 PM 57.0 °F - 21.0 °F 25% 30.22 in 6.0 mi East 4.6 mph - N/A   Smoke
5:56 PM 55.0 °F - 26.1 °F 33% 30.21 in 10.0 mi East 3.5 mph - N/A   Overcast
6:56 PM 53.1 °F - 30.0 °F 41% 30.23 in 10.0 mi Calm Calm - N/A   Mostly Cloudy
7:56 PM 48.9 °F - 32.0 °F 52% 30.22 in 10.0 mi SSE 3.5 mph - N/A   Mostly Cloudy
8:56 PM 46.0 °F 44.8 °F 34.0 °F 63% 30.22 in 10.0 mi SE 3.5 mph - N/A   Mostly Cloudy
9:56 PM 46.9 °F - 34.0 °F 61% 30.22 in 10.0 mi Calm Calm - N/A   Overcast
10:56 PM 46.9 °F - 37.0 °F 68% 30.19 in 10.0 mi East 3.5 mph - 0.00 in   Overcast
11:56 PM 43.0 °F - 34.0 °F 71% 30.20 in 10.0 mi Calm Calm - N/A   Clear